Погода в Колодежном

Россия / Воронежская область     50°37′58″N   39°50′51″E
темп.,
°C
ветер,
м/с
пор.,
м/с
влажн.,
%
обл.,
%
осадки,
мм/ч
давл.,
гПа
погр.,
м
26 июля, пн
пн2600:00+17всв226512 0.0 102213
03:00+16всв12660 0.0 102311
06:00+17в226519 0.0 102323
09:00+23всв354899 0.0 1023523
12:00+27всв43378 0.0 10231892
15:00+28св43344 0.0 10222241
18:00+26св35410 0.0 1022422
21:00+20всв23490 0.0 102220
27 июля, вт
вт2700:00+18в11530 0.0 102211
03:00+17в11520 0.0 102311
06:00+18вюв11560 0.0 102311
09:00+24всв11403 0.0 1022370
12:00+28всв22315 0.0 10211742
15:00+29св22305 0.0 10202231
18:00+28вюв22370 0.0 1019440
21:00+24ююв124289 0.0 101911
28 июля, ср
ср2800:00+20ссв11515 0.0 101911
03:00+19ю115646 0.1 101911
06:00+20ююз11585 0.0 101911
09:00+26ю11405 0.0 1018408
12:00+30юз22301 0.0 10172301
15:00+31зюз442724 0.0 10152809
18:00+29юз3534100 0.0 1014244
21:00+24зюз2240100 0.0 101316
29 июля, чт
чт2900:00+23юз224296 0.0 101317
03:00+24юз41049100 0.0 1012284
06:00+20юз397855 0.4 1012217
09:00+25юз56610 0.4 1011760
12:00+29зюз56505 0.0 10101547
15:00+32зюз57359 0.0 10092714
18:00+31зюз453570 0.0 1008681
21:00+23юз8137798 0.3 1010367
30 июля, пт
пт3000:00+21зюз4984100 0.4 1009214
03:00+19юз2493100 0.5 100884
06:00+20юз368912 0.0 1009213
09:00+26зюз33655 0.0 1009733
12:00+30зюз45487 0.0 10081622
15:00+29з3651100 0.3 1007904
18:00+27зюз466299 0.6 1008250
21:00+24зсз22653 1.4 100919